Regional Weather Roundup
Issued by NWS

Home | Current Version | Previous Version | Graphics & Text | Print | Product List | Glossary On
Versions: 1 2 3 4 5 6 7 8 9 10 11 12 13 14 15 16 17 18 19 20 21 22 23 24 25 26 27 28 29 30 31 32 33 34 35 36 37 38 39 40 41 42 43 44 45 46 47 48 49 50
000
ASUS43 KMKX 281859
RWRWI

WISCONSIN REGIONAL WEATHER ROUNDUP
NATIONAL WEATHER SERVICE MILWAUKEE/SULLIVAN WI
100 PM CST SAT FEB 28 2015

NOTE: "FAIR" INDICATES FEW OR NO CLOUDS BELOW 12,000 FEET WITH NO
SIGNIFICANT WEATHER AND/OR OBSTRUCTIONS TO VISIBILITY.

WIZ001-002-006>008-014>016-023>028-282000-
NORTHWEST WISCONSIN

CITY           SKY/WX    TMP DP  RH WIND       PRES   REMARKS
SUPERIOR ARPT  MOSUNNY   21   5  49 SW16      30.42F WCI   7
ASHLAND        SUNNY     21  -1  38 SW15      30.43F WCI   8
HAYWARD        SUNNY     16   1  51 S17       30.43F WCI   0
SIREN          SUNNY     19   3  49 S14G20    30.44F WCI   6
CUMBERLAND     SUNNY     14   1  57 S12       30.45F WCI   0
RICE LAKE      SUNNY     14   2  59 S13       30.49F WCI   0
CHETEK         SUNNY     14   2  58 S5        30.49F WCI   6
LADYSMITH      SUNNY     15   2  55 S8        30.50F WCI   4
EAU CLAIRE     NOT AVBL
MENOMONIE      SUNNY     16   3  56 S13G20    30.52F WCI   2
NEW RICHMOND   SUNNY     17   5  57 S13       30.48F WCI   4
OSCEOLA        SUNNY     19   4  54 S16       30.50F WCI   4
$$

WIZ003>005-009-010-017-018-282000-
NORTH CENTRAL WISCONSIN

CITY           SKY/WX    TMP DP  RH WIND       PRES   REMARKS
MANITOWISH WTR SUNNY     16  -3  42 SW16      30.41F WCI   1
ARBOR VITAE    SUNNY     19   1  46 S13       30.41F WCI   6
WOODRUFF       SUNNY     19   1  46 S13       30.41F WCI   6
RHINELANDER    SUNNY     17   0  47 SW9       30.43F WCI   6
EAGLE RIVER    SUNNY     17  -4  38 SW8       30.41F WCI   7
LAND O LAKES   SUNNY     20  -4  33 S7        30.41F WCI  11
PHILLIPS       SUNNY     15  -1  50 SW10      30.44F WCI   2
TOMAHAWK       SUNNY     18  -5  36 CALM      30.46F
MEDFORD        SUNNY     11   0  60 S7        30.47F WCI   1
MERRILL        SUNNY     15  -4  43 SW10      30.50F WCI   3
$$

WIZ029-030-035-036-043>047-282000-
CENTRAL WISCONSIN

CITY           SKY/WX    TMP DP  RH WIND       PRES   REMARKS
WAUSAU         SUNNY     15   1  53 S9        30.49F WCI   3
MOSINEE        SUNNY     14   0  52 S9        30.51F WCI   2
MARSHFIELD     SUNNY     16  -4  41 SW13      30.49F WCI   2
STEVENS POINT  SUNNY     14  -2  48 S12       30.54F WCI   0
WAUPACA        SUNNY     22  -4  32 S9        30.58F WCI  11
WAUTOMA        NOT AVBL
WISC RAPIDS    SUNNY     16  -7  35 S12       30.54F WCI   3
CAMP DOUGLAS   NOT AVBL
$$

WIZ011>013-019>022-031-037>040-048>050-282000-
NORTHEAST WISCONSIN

CITY           SKY/WX    TMP DP  RH WIND       PRES   REMARKS
ANTIGO         SUNNY     14   0  53 SW6       30.48F WCI   5
SHAWANO        SUNNY     19  -1  41 SW8       30.58F WCI   9
OCONTO         SUNNY     19   3  50 SW8       30.59F WCI   9
STURGEON BAY   SUNNY     18   1  49 SW12      30.60F WCI   5
GREEN BAY      SUNNY     17   3  54 S12       30.59F WCI   4
MANITOWOC      NOT AVBL
APPLETON       MOSUNNY   18   0  45 S8        30.58F WCI   7
CLINTONVILLE   SUNNY     18   0  45 SW7       30.57F WCI   8
OSHKOSH        SUNNY     17   2  51 S9        30.58F WCI   6
$$

WIZ032>034-041-042-053>061-282000-
SOUTHWEST WISCONSIN

CITY           SKY/WX    TMP DP  RH WIND       PRES   REMARKS
LA CROSSE      SUNNY     15   1  53 SE8       30.57F WCI   4
SPARTA         SUNNY     16   0  48 S9        30.58F WCI   5
VIROQUA        SUNNY     14  -1  52 S6        30.53F WCI   5
BOSCOBEL       SUNNY     16  -4  41 S8        30.61F WCI   5
PRAIRIE DU CHI SUNNY     15  -5  41 S7        30.60F WCI   5
PLATTEVILLE    SUNNY     12   0  59 S5        30.59F WCI   4
$$

WIZ056-057-062-063-064-067-068-282000-
SOUTH CENTRAL WISCONSIN

CITY           SKY/WX    TMP DP  RH WIND       PRES   REMARKS
REEDSBURG      SUNNY     14  -1  50 SW10      30.59F WCI   1
BARABOO/DELLS  SUNNY     15  -2  47 S8        30.58F WCI   3
LONE ROCK      NOT AVBL
MINERAL POINT  SUNNY     14   0  52 S8        30.57F WCI   3
MADISON        PTSUNNY   13  -2  51 S13       30.60F WCI  -2
MIDDLETON      SUNNY     16  -3  42 S7        30.60F WCI   6
WATERTOWN      SUNNY     15   0  49 S8        30.62F WCI   5
MONROE         SUNNY     14   5  67 S8        30.59F WCI   3
JANESVILLE     SUNNY     18   1  49 S7        30.61F WCI   8
$$

WIZ051-052-058>065-066-070>072-282000-
SOUTHEAST WISCONSIN

CITY           SKY/WX    TMP DP  RH WIND       PRES   REMARKS
MILWAUKEE      MOSUNNY   16  -2  45 SW14      30.64F WCI   2
WAUKESHA       SUNNY     16  -4  41 SW6       30.62F WCI   7
MILWAUKEE/TIMM NOT AVBL
RACINE         SUNNY     16  -1  47 VRB7      30.65F WCI   6
BURLINGTON     SUNNY     15  -1  48 SW13      30.63F WCI   1
KENOSHA        SUNNY     17   1  49 SW6       30.63F WCI   9
FOND DU LAC    SUNNY     18  -1  43 S15       30.59F WCI   4
SHEBOYGAN      SUNNY     18  -2  41 SW13      30.60F WCI   5
WEST BEND      SUNNY     18  -4  38 S5        30.60F WCI  11
JUNEAU         SUNNY     13  -2  50 S9        30.62F WCI   1
$$

LSZ147-162-282000-
LAKE SUPERIOR

STATION/POSITION TIME  TEMP    WIND        PRES    WAVE
                       AIR SEA DIR/SP/G            HT/PER
                 (UTC) (F)     (DEG/KT/KT) (MB)    (FT/S)
DEVILS ISLAND    1800   15     200/  5/  7 1033.0F
PORT WING        1840   20     220/  9/ 15 1030.5F
SAXON HARBOR     1840   22     190/  5/ 14 1030.8F
$$

LMZ867-665-643>646-282000-
LAKE MICHIGAN

STATION/POSITION TIME  TEMP    WIND        PRES    WAVE
                       AIR SEA DIR/SP/G            HT/PER
                 (UTC) (F)     (DEG/KT/KT) (MB)    (FT/S)
NORTHPORT PIER   1800   19     200/  7/ 10 1035.9F
SISTER BAY       1813   26     240/ 11/ 12   N/A
KEWAUNEE LAKESHO 1800   16     210/  7/ 11 1036.2F
SHEBOYGAN LAKESH 1800   15     210/  9/ 10 1039.5F
PORT WASHINGTON  1800   21     180/  8/ 11 1038.3
MILWAUKEE LAKESH 1800   15     190/  9/ 11   N/A
KENOSHA   LAKESH 1800   17     160/  6/ 10 1038.6F
$$

TC  - TEMPERATURE IN CELSIUS
VSB - VISIBILITY IN STATUTE MILES
WCI - WIND CHILL INDEX
HX  - HEAT INDEX




USA.gov is the U.S. government's official web portal to all federal, state and local government web resources and services.